Tracking 20942 objects as of 11-Jul-2020
HD Live streaming from Space Station
objects crossing your sky now

THORAD DELTA 1 DEB

Track THORAD DELTA 1 DEB now!
10-day predictions


NORAD ID: 42602
Int'l Code: 1974-089FT
Perigee: 1,381.9 km
Apogee: 1,904.3 km
Inclination: 101.4 °
Period: 119.0 minutes
Semi major axis: 8014 km
RCS: Unknown
Launch date: November 15, 1974
Source: United States (US)
Launch site: AIR FORCE WESTERN TEST RANGE (AFWTR)

Note: This is SATELLITE DEBRIS
aabbcc
Your satellite tracking list
Your tracking list is empty




NASA's NSSDC Master Catalog

Two Line Element Set (TLE):
1 42602U 74089FT  20192.68479101 +.00000138 +00000-0 +16201-2 0  9996
2 42602 101.4197 357.3847 0325963 059.2348 304.0372 12.10098661707811
Source of the keplerian elements: AFSPC